TimeCST,TemperatureF,Dew PointF,Humidity,Sea Level PressureIn,VisibilityMPH,Wind Direction,Wind SpeedMPH,Gust SpeedMPH,PrecipitationIn,Events,Conditions,WindDirDegrees,DateUTC
12:54 AM,37.0,30.9,79,29.94,10.0,North,10.4,-,0.00,Rain,Light Rain,10,2012-12-08 06:54:00
1:27 AM,35.6,30.2,81,29.92,10.0,NNE,11.5,-,0.00,Rain-Snow,Light Rain,20,2012-12-08 07:27:00
1:54 AM,36.0,30.9,82,29.94,10.0,North,12.7,-,0.00,Rain-Snow,Light Rain,10,2012-12-08 07:54:00
2:31 AM,33.8,32.0,93,29.94,4.0,North,8.1,-,0.01,Rain-Snow,Snow,360,2012-12-08 08:31:00
2:39 AM,33.8,32.0,93,29.94,4.0,North,6.9,-,0.01,Rain-Snow,Snow,360,2012-12-08 08:39:00
2:54 AM,34.0,32.0,92,29.96,4.0,NNE,8.1,-,0.01,Rain-Snow,Light Rain,20,2012-12-08 08:54:00
3:54 AM,34.0,33.1,96,29.95,7.0,North,9.2,-,0.00,,Overcast,10,2012-12-08 09:54:00
4:54 AM,33.8,32.0,93,29.94,8.0,North,8.1,-,N/A,,Overcast,360,2012-12-08 10:54:00
5:54 AM,34.0,32.0,92,29.97,10.0,North,5.8,-,N/A,,Mostly Cloudy,360,2012-12-08 11:54:00
6:54 AM,34.0,30.9,89,30.00,10.0,North,9.2,-,N/A,,Mostly Cloudy,10,2012-12-08 12:54:00
7:20 AM,33.8,30.2,87,29.99,10.0,North,6.9,-,N/A,,Overcast,360,2012-12-08 13:20:00
7:54 AM,34.0,30.9,89,30.01,9.0,North,5.8,-,N/A,,Overcast,350,2012-12-08 13:54:00
8:25 AM,33.8,30.2,87,30.00,10.0,North,9.2,-,N/A,,Overcast,360,2012-12-08 14:25:00
8:54 AM,34.0,30.9,89,30.04,10.0,North,5.8,-,N/A,,Overcast,360,2012-12-08 14:54:00
9:09 AM,33.8,30.2,87,30.01,10.0,North,6.9,-,N/A,,Overcast,10,2012-12-08 15:09:00
9:54 AM,36.0,32.0,86,30.06,10.0,NNE,12.7,-,N/A,,Overcast,30,2012-12-08 15:54:00
10:54 AM,36.0,32.0,86,30.06,10.0,NNE,12.7,-,N/A,,Overcast,20,2012-12-08 16:54:00
11:54 AM,36.0,30.9,82,30.07,10.0,North,10.4,-,N/A,,Overcast,10,2012-12-08 17:54:00
12:27 PM,37.4,32.0,81,30.04,10.0,North,8.1,-,N/A,,Overcast,360,2012-12-08 18:27:00
12:54 PM,37.0,30.9,79,30.06,10.0,NE,8.1,-,N/A,,Overcast,50,2012-12-08 18:54:00
1:54 PM,37.9,30.9,76,30.07,10.0,NNE,5.8,-,N/A,,Overcast,20,2012-12-08 19:54:00
2:54 PM,39.0,30.0,70,30.07,10.0,ENE,5.8,-,N/A,,Overcast,60,2012-12-08 20:54:00
3:31 PM,37.4,30.2,75,30.06,10.0,ENE,8.1,-,N/A,,Overcast,60,2012-12-08 21:31:00
3:54 PM,37.9,30.9,76,30.08,10.0,NE,6.9,-,N/A,,Overcast,40,2012-12-08 21:54:00
4:54 PM,37.0,30.9,79,30.10,10.0,NE,5.8,-,N/A,,Overcast,40,2012-12-08 22:54:00
5:20 PM,37.4,30.2,75,30.08,10.0,ENE,8.1,-,N/A,,Overcast,70,2012-12-08 23:20:00
5:54 PM,37.0,30.9,79,30.11,10.0,ENE,10.4,-,N/A,,Overcast,70,2012-12-08 23:54:00
6:54 PM,36.0,30.9,82,30.11,10.0,East,10.4,-,N/A,,Overcast,80,2012-12-09 00:54:00
7:54 PM,36.0,32.0,86,30.12,10.0,East,8.1,-,N/A,,Overcast,90,2012-12-09 01:54:00
8:54 PM,35.6,32.0,87,30.10,10.0,ENE,9.2,-,N/A,,Overcast,70,2012-12-09 02:54:00
9:54 PM,36.0,32.0,86,30.12,10.0,ENE,5.8,-,N/A,,Overcast,70,2012-12-09 03:54:00
10:54 PM,36.0,32.0,86,30.10,10.0,East,8.1,-,N/A,,Overcast,80,2012-12-09 04:54:00
11:23 PM,35.6,32.0,87,30.07,10.0,East,9.2,-,N/A,,Overcast,80,2012-12-09 05:23:00
11:54 PM,36.0,32.0,86,30.09,10.0,East,6.9,-,N/A,,Overcast,80,2012-12-09 05:54:00